Rexburg, ID

10:36 PM MDT on July 25, 2017 (GMT -0600)
Rexburg-Madison County

Weather History for KRXE - August, 2014

Change the Weather History Date:

Monday, August 18, 2014

  Actual Average Record
Temperature  
Mean Temperature 70 °F 66 °F  
Max Temperature 88 °F 84 °F 92 °F (2001)
Min Temperature 51 °F 49 °F 41 °F (2002)
Degree Days  
Heating Degree Days 0 1  
Month to date heating degree days 1 11  
Since 1 June heating degree days 164 213  
Since 1 July heating degree days 9 41  
Cooling Degree Days 5 3  
Month to date cooling degree days 55 66  
Year to date cooling degree days 221 180  
Since 1 June cooling degree days 221 176  
Growing Degree Days 20 (Base 50)    
Moisture  
Dew Point 45 °F    
Average Humidity 45    
Maximum Humidity 72    
Minimum Humidity 18    
Precipitation  
Precipitation 0.15 in 0.03 in 0.27 in (2005)
Month to date precipitation 1.85 0.50  
Year to date precipitation 8.94 8.46  
Sea Level Pressure  
Sea Level Pressure 29.94 in    
Wind  
Wind Speed 5 mph (NE)    
Max Wind Speed 17 mph    
Max Gust Speed 24 mph    
Visibility 10 miles    
Events Rain , Thunderstorm    
T = Trace of Precipitation, MM = Missing Value Source: NWS Daily Summary

Daily Weather History Graph

Daily Weather History Graph

Search for Another Location

Airport or City:

Trip Planner

Search our weather history database for the weather conditions in past years. The results will help you decide how hot, cold, wet, or windy it might be!

Date:

Astronomy

Aug. 18, 2014 Rise Set
Actual Time 6:34 AM MDT 8:26 PM MDT
Civil Twilight 6:04 AM MDT 8:57 PM MDT
Nautical Twilight 5:26 AM MDT 9:34 PM MDT
Astronomical Twilight 4:45 AM MDT 10:15 PM MDT
Moon 12:42 AM MDT (8/18) 3:36 PM MDT (8/18)
Length of Visible Light 14h 53m
Length of Day
13h 51m
Last Quarter, 38% of the Moon is Illuminated
Aug 18
Last Quarter
Aug 25
New
Sep 2
First Quarter
Sep 8
Full
Sep 15
Last Quarter

Hourly Weather History & Observations

Time (MDT) Temp. Dew Point Humidity Pressure Visibility Wind Dir Wind Speed Gust Speed Precip Events Conditions
12:53 AM 66.9 °F 43.0 °F 42% 29.96 in 10.0 mi ENE 4.6 mph - N/A   Clear
1:53 AM 63.0 °F 43.0 °F 48% 29.96 in 10.0 mi NNE 6.9 mph - N/A   Clear
2:53 AM 59.0 °F 45.0 °F 60% 29.96 in 10.0 mi NNE 6.9 mph - N/A   Clear
3:53 AM 55.0 °F 45.0 °F 69% 29.96 in 10.0 mi East 4.6 mph - N/A   Clear
4:53 AM 55.0 °F 44.1 °F 67% 29.96 in 10.0 mi ENE 6.9 mph - N/A   Clear
5:53 AM 53.1 °F 43.0 °F 69% 29.98 in 10.0 mi Calm Calm - N/A   Clear
6:53 AM 52.0 °F 43.0 °F 71% 29.99 in 10.0 mi Calm Calm - N/A   Clear
7:53 AM 54.0 °F 44.1 °F 69% 29.99 in 10.0 mi NNE 3.5 mph - N/A   Clear
8:53 AM 59.0 °F 46.9 °F 64% 30.01 in 10.0 mi Calm Calm - N/A   Clear
9:53 AM 64.0 °F 46.9 °F 54% 30.00 in 10.0 mi Calm Calm - N/A   Clear
10:53 AM 72.0 °F 48.0 °F 43% 29.97 in 10.0 mi Variable 3.5 mph - N/A   Clear
11:53 AM 77.0 °F 43.0 °F 30% 29.95 in 10.0 mi Calm Calm - N/A   Clear
12:53 PM 81.0 °F 43.0 °F 26% 29.92 in 10.0 mi SSW 5.8 mph - N/A   Clear
1:53 PM 84.0 °F 42.1 °F 23% 29.89 in 10.0 mi Variable 6.9 mph - N/A   Clear
2:53 PM 86.0 °F 37.9 °F 18% 29.87 in 10.0 mi WSW 10.4 mph - N/A   Clear
3:53 PM 86.0 °F 37.9 °F 18% 29.86 in 10.0 mi Variable 6.9 mph 19.6 mph N/A   Clear
4:53 PM 87.1 °F 39.9 °F 19% 29.84 in 10.0 mi Variable 4.6 mph - N/A   Clear
5:42 PM 78.1 °F 43.0 °F 29% 29.98 in 10.0 mi NE 10.4 mph - N/A Thunderstorm Scattered Clouds
5:53 PM 77.0 °F 41.0 °F 28% 29.88 in 10.0 mi NNE 10.4 mph - N/A Thunderstorm Mostly Cloudy
6:12 PM 73.0 °F 45.0 °F 37% 30.04 in 10.0 mi NNW 6.9 mph 18.4 mph 0.00 in Rain , Thunderstorm Light Thunderstorms and Rain
6:42 PM 64.9 °F 51.1 °F 61% 30.01 in 10.0 mi ENE 10.4 mph - 0.10 in Thunderstorm Mostly Cloudy
6:50 PM 66.2 °F 51.8 °F 60% 30.01 in 10.0 mi East 9.2 mph - 0.10 in   Scattered Clouds
6:53 PM 66.0 °F 51.1 °F 59% 29.92 in 10.0 mi ENE 8.1 mph - 0.10 in   Scattered Clouds
7:53 PM 68.0 °F 50.0 °F 52% 29.91 in 10.0 mi ESE 8.1 mph - 0.01 in   Mostly Cloudy
8:53 PM 66.0 °F 50.0 °F 56% 29.88 in 10.0 mi East 8.1 mph - 0.04 in   Clear
10:53 PM 60.1 °F 48.9 °F 67% 29.87 in 10.0 mi NNE 5.8 mph - N/A   Partly Cloudy
11:53 PM 57.0 °F 48.0 °F 72% 29.85 in 10.0 mi ENE 8.1 mph - N/A   Clear